Regional Weather Roundup
Issued by NWS

Home | Current Version | Previous Version | Graphics & Text | Print | Product List | Glossary On
Versions: 1 2 3 4 5 6 7 8 9 10 11 12 13 14 15 16 17 18 19 20 21 22 23 24 25 26 27 28 29 30 31 32 33 34 35 36 37 38 39 40 41 42 43 44 45 46 47 48 49 50
000
ASUS43 KFSD 301702
RWRSD

WEATHER ROUNDUP FOR SOUTH DAKOTA
NATIONAL WEATHER SERVICE SIOUX FALLS SD
1200 PM CDT MON MAY 30 2016

NOTE: "FAIR" INDICATES FEW OR NO CLOUDS BELOW 12,000 FEET WITH NO
SIGNIFICANT WEATHER AND/OR OBSTRUCTIONS TO VISIBILITY.


SDZ001>005-009-010-012>017-301800-
NORTHWEST AND NORTH CENTRAL SOUTH DAKOTA

CITY           SKY/WX    TMP DP  RH WIND       PRES   REMARKS
BUFFALO          N/A     66  55  67 N16       29.83R
FAITH            N/A     69  56  62 S16       29.84S
MOBRIDGE       CLOUDY    75  57  53 SE20G26   29.82F
$$

SDZ012>016-024>037-041>051-057-063-072>074-301800-
SOUTHWEST AND SOUTH CENTRAL SOUTH DAKOTA

CITY           SKY/WX    TMP DP  RH WIND       PRES   REMARKS
RAPID CTY ARPT SUNNY     74  57  55 E9        29.84F
PIERRE         CLOUDY    77  61  57 S20       29.84F
CUSTER         CLOUDY    67  41  38 W12G22    29.97F
ELLSWORTH AFB  MOSUNNY   76  50  41 VRB1      29.84S
PHILIP         SUNNY     75  57  53 SE15      29.84F
PINE RIDGE     SUNNY     77  44  30 W9        29.89F
WINNER         FAIR      74  58  57 S15       29.89F
$$

SDZ004>011-016>023-039-040-301800-
NORTHEAST SOUTH DAKOTA

CITY           SKY/WX    TMP DP  RH WIND       PRES   REMARKS
ABERDEEN       MOSUNNY   77  56  48 S16       29.90F
WATERTOWN      CLOUDY    76  54  46 S14       29.94F
BROOKINGS      SUNNY     76  58  53 S17       29.94F
SISSETON         N/A     83  47  28 S14       29.89F
$$

SDZ017-020-022-023-036>040-048>070-301800-
SOUTHEAST SOUTH DAKOTA

CITY           SKY/WX    TMP DP  RH WIND       PRES   REMARKS
SIOUX FALLS    PTSUNNY   75  58  55 S17       29.96F
HURON          PTSUNNY   74  57  55 S20G28    29.91S
MITCHELL       CLOUDY    74  60  61 S20       29.92F
YANKTON        PTSUNNY   77  55  47 S14       29.93F
$$

ABBREVIATIONS USED IN REMARKS
   TC - TEMPERATURE IN CELSIUS
  WCI - WIND CHILL INDEX
   HX - HEAT INDEX
  VSB - VISIBILITY





USA.gov is the U.S. government's official web portal to all federal, state and local government web resources and services.